Погода в Логдузе

Россия / Вологодская область     59°59′40″N   44°43′44″E
темп.,
°C
ветер,
м/с
пор.,
м/с
влажн.,
%
обл.,
%
осадки,
мм/ч
давл.,
гПа
погр.,
м
15 мая, сб
сб1500:00+12зсз007785 0.0 101611
03:00+13ююв2377100 0.0 101676
06:00+15ююв268214 0.3 1015257
09:00+17ю3574100 0.4 1015589
12:00+22ююв355899 0.0 10131142
15:00+18зюз41083100 3.3 1013489
18:00+15ююв51091100 0.9 1011424
21:00+14ююв3993100 4.4 1010224
16 мая, вс
вс1600:00+13ю414925 0.0 1011527
03:00+13ю413962 0.0 1010385
06:00+15ююз412900 0.0 1010597
09:00+19ююз610660 0.0 10101177
12:00+22ююз6105032 0.1 10092054
15:00+22юз6105213 0.4 10091824
18:00+19юз51165100 0.3 10101460
21:00+15ююз4118161 0.3 1010511
17 мая, пн
пн1700:00+14юз411925 0.0 1011482
03:00+13юз4119765 0.0 1012485
06:00+14зюз488531 0.0 1013466
09:00+18з47620 0.0 10151087
12:00+21зюз58470 0.0 10151732
15:00+23з57412 0.0 10152198
18:00+21з355292 0.0 1015462
21:00+16зюз117369 0.0 101711
18 мая, вт
вт1800:00+13св118260 0.0 101711
03:00+12в228725 0.0 101833
06:00+15вюв2576100 0.0 1018156
09:00+21юв355988 0.0 1017680
12:00+25юв45475 0.0 10161511
15:00+27ююв453541 0.0 10152274
18:00+25юв26495 0.0 1014211
21:00+18юв310735 0.0 1014163
19 мая, ср
ср1900:00+16юв311795 0.0 1014201
03:00+14юв39790 0.0 1014149
06:00+17юв41464100 0.0 1013382
09:00+24ююв5114547 0.0 1012609
12:00+28ююв6123195 0.0 10121816
15:00+29ююв69305 0.0 10103556
18:00+26ююв512365 0.0 10091185
21:00+20юв516567 0.0 1009690